Tracking 20241 objects as of 25-Jan-2020
HD Live streaming from Space Station
objects crossing your sky now

FENGYUN 1C DEB

Track FENGYUN 1C DEB now!
10-day predictions


NORAD ID: 37927
Int'l Code: 1999-025EPC
Perigee: 802.8 km
Apogee: 822.5 km
Inclination: 98.8 °
Period: 101.0 minutes
Semi major axis: 7183 km
RCS: 0.0028 m2 (small)
Launch date: May 10, 1999
Source: People's Republic of China (PRC)
Launch site: Taiyaun Space Center, China (TSC)

Note: This is SATELLITE DEBRIS
aabbcc
Your satellite tracking list
Your tracking list is empty




NASA's NSSDC Master Catalog

Two Line Element Set (TLE):
1 37927U 99025EPC 20024.40317670 +.00000748 +00000-0 +33268-3 0  9993
2 37927 098.8451 091.5334 0013727 145.5629 214.6443 14.25895009531671
Source of the keplerian elements: AFSPC